Tracking 28052 objects as of 22-Sep-2023
HD Live streaming from Space Station
objects crossing your sky now

BEIDOU G7

Track BEIDOU G7 now!
BEIDOU G7 is classified as:


NORAD ID: 41586
Int'l Code: 2016-037A
Perigee: 35,759.9 km
Apogee: 35,824.7 km
Inclination: 1.9 °
Period: 1,436.0 minutes
Semi major axis: 42163 km
RCS: Unknown
Launch date: June 12, 2016
Source: People's Republic of China (PRC)
Launch site: Xichang Space Center, China (XSC)
Your satellite tracking list
Your tracking list is empty




NASA's NSSDC Master Catalog

Two Line Element Set (TLE):
1 41586U 16037A   23265.07618953 -.00000351  00000-0  00000+0 0  9997
2 41586   1.9107  68.6375 0007690 345.2174  84.7537  1.00277026 26767
Source of the keplerian elements: AFSPC